Regional Weather Roundup
Issued by NWS

Home | Current Version | Previous Version | Graphics & Text | Print | Product List | Glossary On
Versions: 1 2 3 4 5 6 7 8 9 10 11 12 13 14 15 16 17 18 19 20 21 22 23 24 25 26 27 28 29 30 31 32 33 34 35 36 37 38 39 40 41 42 43 44 45 46 47 48 49 50
132
ASUS45 KTFX 261410
RWRMT
MONTANA REGIONAL WEATHER ROUNDUP
NATIONAL WEATHER SERVICE GREAT FALLS MT
800 AM MDT WED JUL 26 2017

NOTE: "FAIR" INDICATES FEW OR NO CLOUDS BELOW 12000 FEET WITH NO
SIGNIFICANT WEATHER AND/OR OBSTRUCTIONS TO VISIBILITY.

MTZ001>007-043-261500-
WEST OF THE DIVIDE

CITY           SKY/WX    TMP DP  RH WIND       PRES   REMARKS
KALISPELL      SUNNY     63  45  51 N6        30.09R
MISSOULA       SUNNY     57  40  52 CALM      30.14R
BUTTE          SUNNY     54  44  69 SE3       30.25R
MULLAN PASS    SUNNY     65  32  29 CALM      30.24R
ANACONDA         N/A     63  36  36 S3        30.20S
DEER LODGE       N/A     59  43  55 CALM      30.22R
EUREKA           N/A     57  36  44 MISG      30.12R
HAMILTON         N/A     61  45  55 CALM      30.15R
LIBBY            N/A     55  37  50 CALM      30.09S
PLAINS           N/A     56  43  61 CALM      30.09R
$$

MTZ008-052>055-261500-
SOUTHWEST MONTANA

CITY           SKY/WX    TMP DP  RH WIND       PRES   REMARKS
BOZEMAN        PTSUNNY   62  50  64 S5        30.20R
DILLON         MOSUNNY   59  52  77 SW8       30.22R
W YELLOWSTONE  CLOUDY    46  45  93 CALM      30.36R
ENNIS          MOSUNNY   61  50  67 CALM      30.28R
THREE FORKS      N/A     57  51  80 CALM      30.16R
TWIN BRIDGES     N/A     56  48  74 CALM      30.18R
$$

MTZ009-010-012-014-046-048-049-054-261500-
EAST SLOPES AND CENTRAL MONTANA

CITY           SKY/WX    TMP DP  RH WIND       PRES   REMARKS
CUT BANK       SUNNY     58  42  55 NW3       30.15S
GREAT FALLS    SUNNY     62  39  42 SW6       30.15R
HELENA         SUNNY     65  42  43 CALM      30.16R
CHOTEAU          N/A     59  41  51 CALM      30.17R
CONRAD           N/A     58  50  75 CALM      30.15R
$$

MTZ011-013-016-021-045-047-050-051-261500-
NORTH CENTRAL MONTANA

CITY           SKY/WX    TMP DP  RH WIND       PRES   REMARKS
HAVRE          SUNNY     63  44  50 SE3       30.11R
LEWISTOWN      SUNNY     62  44  51 E3        30.17S
N BAR RANCH    CLOUDY    63  46  55 CALM      30.21S
CHINOOK          N/A     63  45  51 E10       30.12S
$$

MTZ017>020-022>027-061-062-261500-
NORTHEAST MONTANA

CITY           SKY/WX    TMP DP  RH WIND       PRES   REMARKS
GLASGOW        SUNNY     70  49  47 E10       30.13S
JORDAN           N/A     64  40  41 CALM      30.13R
SIDNEY         SUNNY     67  52  58 NE7       30.14R
WOLF POINT     SUNNY     67  49  52 E7        30.14R
MALTA          SUNNY     66  45  45 NE10      30.13S
PLENTYWOOD       N/A     66  54  63 CALM      30.16S
POPLAR           N/A     64  50  59 NE6       30.15R
SCOBEY           N/A     58  43  57 N1        30.15R
$$

MTZ028>42-056>058-261500-
SOUTHCENTRAL AND SOUTHEAST MONTANA

CITY           SKY/WX    TMP DP  RH WIND       PRES   REMARKS
BAKER          SUNNY     71  46  40 S6        30.16R
BILLINGS       MOSUNNY   61  47  59 SW8       30.17R
LIVINGSTON     MOSUNNY   57  46  66 NW3       30.21R
MILES CITY     SUNNY     70  43  37 E3        30.12S
FORSYTH          N/A     66  45  45 CALM      30.12S
LAUREL           N/A     61  46  57 S3        30.15F
$$

REGIONAL REPORTS...DAKOTAS

CITY           SKY/WX    TMP DP  RH WIND       PRES   REMARKS
WILLISTON      SUNNY     68  53  58 NE7       30.15S
MINOT          SUNNY     70  57  63 NW7       30.13R
DICKINSON      SUNNY     69  54  58 E7        30.14R
BEACH          DRIZZLE   68  48  49 SE8       30.18S
CROSBY           N/A     68  55  64 CALM      30.17R
TIOGA            N/A     64  59  82 CALM      30.18S
WATFORD CITY     N/A     68  54  60 E6        30.14S
BISMARCK       SUNNY     73  58  59 CALM      30.11R
GRAND FORKS    SUNNY     71  62  73 NW13      30.02R
FARGO          SUNNY     71  61  70 N9        30.03R
BUFFALO SD       N/A     71  59  65 N3        30.10S
RAPID CITY     CLOUDY    72  50  45 NW8       30.15R
$$

REGIONAL REPORTS...WYOMING/IDAHO/WASHINGTON

CITY           SKY/WX    TMP DP  RH WIND       PRES   REMARKS
GILLETTE       CLOUDY    67  60  78 S10       30.22R
SHERIDAN       SUNNY     60  56  86 CALM      30.19R
BUFFALO WY     SUNNY     65  54  67 SE6       30.26R
CODY           SUNNY     61  55  81 CALM      30.25R
YELLOWSTONE LA   N/A     50  50 100 CALM      30.43R
IDAHO FALLS    PTSUNNY   60  57  89 CALM      30.20R
BOISE          PTSUNNY   73  57  57 S5        30.07R
SPOKANE        MOSUNNY   64  46  52 NE5       30.05R
$$

REGIONAL REPORTS...ALBERTA

CITY           SKY/WX    TMP DP  RH WIND       PRES   REMARKS
EDMONTON       SUNNY     61  52  72 S3        30.05S
CALGARY        MOSUNNY   57  45  62 S6        30.11S
MEDICINE HAT   MOSUNNY   59  46  63 CALM      30.11S
WATERTON GATE    N/A     54  46  76 SW3         N/A
CARDSTON         N/A     55  43  62 SW3         N/A
$$

REGIONAL REPORTS...SASKATCHEWAN

CITY           SKY/WX    TMP DP  RH WIND       PRES   REMARKS
SWIFT CURRENT  SUNNY     68  52  56 S12       30.14S
REGINA         SUNNY     64  55  72 SW5       30.17R
SASKATOON      SUNNY     61  55  82 SW5       30.14R
VAL MARIE        N/A     63  43  48 NE1         N/A
ASSINIBOIA       N/A     57  54  88 S6          N/A
$$




USA.gov is the U.S. government's official web portal to all federal, state and local government web resources and services.